Address 0xd34436981531fd99ac0a4ff9174c7c61d1b7a593 3

 
 
Txn Hash
Block
From
To
Value [Txn Fee]
0x01c320373be8ef753e53996fd28ecdd8c28f0437ddcc939970e83c80aef6d7fa91042792021-07-12 22:58:0024 days 3 hrs ago0xd34436981531fd99ac0a4ff9174c7c61d1b7a593OUT Mirror Protocol: UST Token0 BNB0.000190055
0x7e6f93ded70ddff1349696240702793bff906bbb42829e97b49d23e3007764c291042602021-07-12 22:57:0324 days 3 hrs ago0xd34436981531fd99ac0a4ff9174c7c61d1b7a593OUT PancakeSwap: Router v20 BNB0.000565795
0xd432d72c213613bb6205e9140384024865277fb0f1aeec8af5e4d1e57770c8c982107162021-06-11 17:58:1055 days 8 hrs ago0xd34436981531fd99ac0a4ff9174c7c61d1b7a593OUT0x54777473e1993a1857ed37ea22a7acf858589a0a0.37 BNB0.000105
0x3927501ee6c00ffb398c23e9758ad2ad9111acb8f070f8a8cf14868b18284db182103772021-06-11 17:40:5555 days 9 hrs ago0xd34436981531fd99ac0a4ff9174c7c61d1b7a593OUT Binance: WBNB Token0 BNB0.00012532
0xe071eea865141056cc2fc303c42f5d141bddff96959e31a347b2ba550328bd4382103622021-06-11 17:40:1055 days 9 hrs ago0xd34436981531fd99ac0a4ff9174c7c61d1b7a593OUT Binance: WBNB Token0 BNB0.00022132
0xda36da4fd826abcf37b48722a1d03de2bb59e836e78ff0e16c4620b736e33dd271913222021-05-06 17:20:4091 days 9 hrs ago0xd34436981531fd99ac0a4ff9174c7c61d1b7a593OUT BUSD-T Stablecoin0 BNB0.000072555
0x046b098e3d52daa64d301048e006b07982b801f14b3b4afeaa39fbe80cb1333171913112021-05-06 17:20:0791 days 9 hrs ago0xd34436981531fd99ac0a4ff9174c7c61d1b7a593OUT Binance: BUSD Stablecoin0 BNB0.00012411
0x1ae06729c8dc921c0058dee9ac2d3fa88f4c6d102622ece54c9fae3bc8a6590c71912852021-05-06 17:18:4991 days 9 hrs ago0xd34436981531fd99ac0a4ff9174c7c61d1b7a593OUT PancakeSwap: CAKE Token0 BNB0.000072615
0x4dbd28d3e1da8bb87b2ee5b46c4f04b6920b056a253cbbb189ea3befc440083571912792021-05-06 17:18:3191 days 9 hrs ago0xd34436981531fd99ac0a4ff9174c7c61d1b7a593OUT Pancake Bunny: BUNNY Token0 BNB0.00007253
0xd89cda8b1987e605f573334c089fe6e2c88a81d7d2b6d91c62b3d4f77eceb8de71912692021-05-06 17:18:0191 days 9 hrs ago0xd34436981531fd99ac0a4ff9174c7c61d1b7a593OUT Binance: BUSD Stablecoin0 BNB0.000072555
0x73c777e18d9b6adf553c96fa002cee40eae5e1d343029c4583874bf93f90018c71912622021-05-06 17:17:4091 days 9 hrs ago0xd34436981531fd99ac0a4ff9174c7c61d1b7a593OUT BUSD-T Stablecoin0 BNB0.000072555
0x47f13ed257d271f9c74f40a977f38c6016e1780a84679a2418c7a60588e820be71912482021-05-06 17:16:5891 days 9 hrs ago0xd34436981531fd99ac0a4ff9174c7c61d1b7a593OUT Binance: BUSD Stablecoin0 BNB0.000072555
0x14c67c8ef6a40d7659c75919c7f3cb2e192c9ac43f4da7fa2b4a6ece32ce60c571214952021-05-04 5:52:1693 days 20 hrs ago0xd34436981531fd99ac0a4ff9174c7c61d1b7a593OUT BUSD-T Stablecoin0 BNB0.000180755
0x4ec466cb1a31b7ed6e3cb133c79ddcd256d72ffa5f04e5d4725f72a2ab35a3d871207272021-05-04 5:13:3893 days 21 hrs ago0xd34436981531fd99ac0a4ff9174c7c61d1b7a593OUT BUSD-T Stablecoin0 BNB0.000255575
0x3203d1e98ab70a269d72e0b2a29a80ebdf69076e831ee2acea4e4218dd8436e071207062021-05-04 5:12:3593 days 21 hrs ago0xd34436981531fd99ac0a4ff9174c7c61d1b7a593OUT 0xdc2bbb0d33e0e7dea9f5b98f46edbac823586a0c0 BNB0.000905985
0x61641ae48e56c84fac2a48511fec74a0036ea690ecb74b30cd0b98f85f207c8e71206972021-05-04 5:12:0893 days 21 hrs ago0xd34436981531fd99ac0a4ff9174c7c61d1b7a593OUT Pancake Bunny: BUNNY Token0 BNB0.000222035
0x1447bb7e882b4a8832c3f37c4c55f5d8f0a68350b25b14082dd9d2eb1075f10671206882021-05-04 5:11:4193 days 21 hrs ago0xd34436981531fd99ac0a4ff9174c7c61d1b7a593OUT Pancake Bunny: USDT Single Asset Vault0 BNB0.00462083
0x29828b36d8e975b44d25fc05a8c1ff5969d03ab3fdc15a006d00867b8430125a70329532021-05-01 3:19:3496 days 23 hrs ago0xd34436981531fd99ac0a4ff9174c7c61d1b7a593OUT BUSD-T Stablecoin0 BNB0.000180695
0x0f6c125f320f473957ca23325094b0cacaf1e7f20b8ad0f9f31fafa8b2bdf3c370323942021-05-01 2:51:3796 days 23 hrs ago0xd34436981531fd99ac0a4ff9174c7c61d1b7a593OUT BUSD-T Stablecoin0 BNB0.000255515
0x5d3bde68477820743e17c2bd3d9bf61d6d101be07a2e3f2711c3dd99fdeb18b170323692021-05-01 2:50:2296 days 23 hrs ago0xd34436981531fd99ac0a4ff9174c7c61d1b7a593OUT BUSD-T Stablecoin0 BNB0.000255575
0xec12f0999739f0079707d9fa344c304430670decbd2178a0a12fe62e0566b30c70323372021-05-01 2:48:4696 days 23 hrs ago0xd34436981531fd99ac0a4ff9174c7c61d1b7a593OUT BUSD-T Stablecoin0 BNB0.000255575
0xed5bfc311d84be0340ea1a314274c0ec4e29c8b310c02cd39c7573441eb5655f70318482021-05-01 2:24:1997 days 18 mins ago0xd34436981531fd99ac0a4ff9174c7c61d1b7a593OUT BUSD-T Stablecoin0 BNB0.000255575
0x01fad811ce5cc0a97bb1ffabdc59b69bff5883d325827760123fd76028c84d3570316302021-05-01 2:13:2597 days 29 mins ago0xd34436981531fd99ac0a4ff9174c7c61d1b7a593OUT BUSD-T Stablecoin0 BNB0.000255635
0x12eb2b0323ed246445f4f2e9996281c791a6bfb0cf37d6c077f39447a6765d9270315432021-05-01 2:09:0497 days 33 mins ago0xd34436981531fd99ac0a4ff9174c7c61d1b7a593OUT BUSD-T Stablecoin0 BNB0.000255635
0x0a2529b1ee6fc59d93e0afe5eea08b6265ba58117f2b77cd0b76aa7c62579f1170307442021-05-01 1:29:0797 days 1 hr ago0xd34436981531fd99ac0a4ff9174c7c61d1b7a593OUT Pancake Bunny: USDT Single Asset Vault0 BNB0.001675845
[ Download CSV Export 
Latest 1 internal transaction
Parent Txn Hash Block From To Value
0xa6bfd25e920fe01d8f14d3acdc51e2691708d8df40cf9bbbdefde11d1528ba7853119402021-03-01 21:44:28157 days 4 hrs ago PancakeSwap: Router0xd34436981531fd99ac0a4ff9174c7c61d1b7a5930.049796083315205664 BNB
[ Download CSV Export 
Loading

Contract Name:
0 BNB

Compiler Version
0

Optimization Enabled:
0 BNB

Other Settings:
-NA-
Block Transaction Gas Used Reward
Age Block Fee Address BC Fee Address Voting Power Jailed Incoming
Block Uncle Number Difficulty Gas Used Reward
Loading
Loading
Make sure to use the "Vote Down" button for any spammy posts, and the "Vote Up" for interesting conversations.